Location: Aufkirchen
(47.9603°N, 11.3653°E)
Time: 10:09:18
(UTC+01:00)

deb Explorer IX - Pass Details

Date: 27 November 2020
Orbit: 536 x 1104 km, 38.8° (Epoch: 19 January)

Event Time Altitude Azimuth Distance (km) Brightness Sun altitude
Rises 20:02:50 0° 256° (WSW) 3,202 ? -35.6°
Reaches altitude 10° 20:05:45 10° 244° (WSW) 2,171 ? -36.1°
Enters shadow 20:06:55 15° 235° (SW) 1,804 ? -36.3°
